N4TLC Weather Reports


time (UTC)temp
C
wind
direction
speed
KPH
gust
KPH
rain 1hr
cm
rain 24hr
cm
rain mn
cm
humidity
%
barometer
mb
20260906111721 22 117 0.0 3.2 0.00 0.00 0.00 93 1015.5
20260906111215 22 94 3.2 3.2 0.00 0.00 0.00 93 1015.5
20260906110710 22 112 3.2 3.2 0.00 0.00 0.00 93 1015.5
20260906110207 22 112 3.2 3.2 0.00 0.00 0.00 93 1015.5
20260906105705 22 67 3.2 4.8 0.00 0.00 0.00 93 1015.4
20260906105202 22 41 1.6 3.2 0.00 0.00 0.00 93 1015.4
20260906104701 22 136 3.2 3.2 0.00 0.00 0.00 93 1015.5
20260906104200 22 84 0.0 3.2 0.00 0.00 0.00 94 1015.1
20260906103658 22 119 3.2 4.8 0.00 0.00 0.00 94 1015.1
20260906103153 22 98 1.6 3.2 0.00 0.00 0.00 95 1015.2
20260906102649 22 120 0.0 3.2 0.00 0.00 0.00 95 1015.2
20260906102148 22 69 0.0 3.2 0.00 0.00 0.00 95 1015.2
20260906101648 22 105 1.6 3.2 0.00 0.00 0.00 96 1015.2
20260906101142 22 126 3.2 4.8 0.00 0.00 0.00 96 1015.1
20260906100638 22 106 1.6 4.8 0.00 0.00 0.00 96 1014.9
20260906100134 22 79 3.2 4.8 0.00 0.00 0.00 96 1014.8
20260906095634 22 66 3.2 4.8 0.00 0.00 0.00 97 1014.7
20260906095129 22 83 3.2 3.2 0.00 0.00 0.00 97 1014.8
20260906094628 22 69 3.2 8.0 0.00 0.00 0.00 97 1014.7
20260906094124 22 146 3.2 6.4 0.00 0.00 0.00 97 1014.7
20260906093620 22 93 3.2 4.8 0.00 0.00 0.00 97 1014.7
20260906093120 22 99 3.2 4.8 0.00 0.00 0.00 97 1014.7
20260906092615 22 96 3.2 4.8 0.00 0.00 0.00 97 1014.2
20260906092110 22 150 0.0 6.4 0.00 0.00 0.00 97 1014.6
20260906091606 22 95 1.6 3.2 0.00 0.00 0.00 97 1014.4
20260906091103 22 115 1.6 4.8 0.00 0.00 0.00 97 1014.3
20260906090602 22 120 3.2 6.4 0.00 0.00 0.00 97 1014.1
20260906085601 21 76 3.2 4.8 0.00 0.00 0.00 97 1014.1
20260906085056 21 74 4.8 6.4 0.00 0.00 0.00 97 1013.9
20260906084551 21 67 3.2 4.8 0.00 0.00 0.00 97 1014.2
20260906084049 21 68 3.2 3.2 0.00 0.00 0.00 96 1014.0
20260906083545 21 89 1.6 3.2 0.00 0.00 0.00 96 1013.9
20260906083045 21 93 1.6 4.8 0.00 0.00 0.00 96 1014.0
20260906082540 21 68 3.2 3.2 0.00 0.00 0.00 96 1013.6
20260906082036 21 78 1.6 3.2 0.00 0.00 0.00 96 1013.8
20260906081532 21 76 3.2 3.2 0.00 0.00 0.00 96 1013.7
20260906081027 21 85 1.6 3.2 0.00 0.00 0.00 96 1013.5
20260906080524 21 75 3.2 3.2 0.00 0.00 0.00 96 1013.5
20260906080020 21 109 1.6 3.2 0.00 0.00 0.00 96 1013.6
20260906075519 21 89 3.2 3.2 0.00 0.00 0.00 96 1013.6
20260906075014 21 74 3.2 3.2 0.00 0.00 0.00 95 1013.6
20260906074509 21 89 1.6 1.6 0.00 0.00 0.00 95 1013.6
20260906074007 21 89 1.6 1.6 0.00 0.00 0.00 95 1013.8
20260906073502 21 89 1.6 1.6 0.00 0.00 0.00 95 1013.5
20260906072958 21 29 0.0 0.0 0.00 0.00 0.00 95 1013.4
20260906072453 21 55 0.0 0.0 0.00 0.00 0.00 95 1013.7
20260906071949 21 106 0.0 1.6 0.00 0.00 0.00 95 1013.8
20260906071445 21 50 0.0 0.0 0.00 0.00 0.00 95 1013.8
20260906070940 21 37 0.0 0.0 0.00 0.00 0.00 95 1013.7
20260906070437 21 103 0.0 0.0 0.00 0.00 0.00 95 1013.9
20260906065932 21 53 0.0 1.6 0.00 0.00 0.00 94 1013.9
20260906065426 21 62 0.0 1.6 0.00 0.00 0.00 94 1013.9
20260906064922 21 40 1.6 1.6 0.00 0.00 0.00 94 1013.9
20260906064418 21 117 0.0 1.6 0.00 0.00 0.00 94 1014.1
20260906063918 21 118 0.0 1.6 0.00 0.00 0.00 94 1014.0
20260906063413 21 125 0.0 1.6 0.00 0.00 0.00 94 1014.2
20260906062908 21 89 0.0 1.6 0.00 0.00 0.00 94 1014.0
20260906062408 21 72 0.0 3.2 0.00 0.00 0.00 94 1014.0
20260906061904 21 113 0.0 1.6 0.00 0.00 0.00 93 1014.0
20260906061400 21 65 0.0 1.6 0.00 0.00 0.00 93 1014.1
20260906060854 21 113 0.0 1.6 0.00 0.00 0.00 93 1014.1
20260906060352 21 119 0.0 1.6 0.00 0.00 0.00 93 1014.0
20260906055847 21 87 0.0 1.6 0.00 0.00 0.00 93 1014.1
20260906055343 21 89 0.0 1.6 0.00 0.00 0.00 92 1014.0
20260906054838 21 95 0.0 1.6 0.00 0.00 0.00 92 1014.1
20260906054333 21 80 1.6 1.6 0.00 0.00 0.00 92 1014.2
20260906053829 21 85 0.0 1.6 0.00 0.00 0.00 92 1014.2
20260906053325 21 76 0.0 1.6 0.00 0.00 0.00 92 1014.3
20260906052820 22 89 0.0 0.0 0.00 0.00 0.00 91 1014.1
20260906052316 22 113 0.0 1.6 0.00 0.00 0.00 91 1014.2
20260906051814 22 117 0.0 1.6 0.00 0.00 0.00 91 1014.2
20260906051313 22 125 1.6 1.6 0.00 0.00 0.00 91 1014.2
20260906050808 22 106 1.6 3.2 0.00 0.00 0.00 91 1014.3
20260906050303 22 117 0.0 3.2 0.00 0.00 0.00 91 1014.4
20260906045802 22 96 1.6 3.2 0.00 0.00 0.00 91 1014.2
20260906045256 22 104 0.0 1.6 0.00 0.00 0.00 90 1014.4
20260906044753 22 93 0.0 1.6 0.00 0.00 0.00 90 1014.6
20260906044247 22 142 0.0 1.6 0.00 0.00 0.00 90 1014.6
20260906043743 22 164 0.0 0.0 0.00 0.00 0.00 90 1014.8
20260906043239 22 89 0.0 1.6 0.00 0.00 0.00 89 1014.7
20260906042739 22 103 0.0 1.6 0.00 0.00 0.00 88 1014.8
20260906042238 22 113 0.0 1.6 0.00 0.00 0.00 88 1014.9
20260906041733 22 89 1.6 1.6 0.00 0.00 0.00 87 1014.9
20260906041229 22 125 1.6 1.6 0.00 0.00 0.00 87 1014.6
20260906040724 22 154 0.0 1.6 0.00 0.00 0.00 86 1014.8
20260906040214 23 142 0.0 0.0 0.00 0.00 0.00 86 1014.8
20260906035709 23 152 0.0 1.6 0.00 0.08 0.08 86 1014.9
20260906035205 23 135 0.0 0.0 0.00 0.08 0.08 86 1015.0
20260906034704 23 147 0.0 0.0 0.00 0.08 0.08 85 1014.8
20260906034159 23 120 0.0 3.2 0.00 0.08 0.08 85 1015.0
20260906033655 23 163 1.6 1.6 0.00 0.08 0.08 85 1014.9
20260906033156 23 129 0.0 1.6 0.00 0.08 0.08 84 1014.9
20260906032652 23 128 0.0 1.6 0.00 0.08 0.08 84 1015.1
20260906032152 23 89 0.0 1.6 0.00 0.08 0.08 84 1014.9
20260906031647 23 89 0.0 3.2 0.00 0.08 0.08 83 1015.0
20260906031143 23 89 0.0 3.2 0.00 0.08 0.08 83 1014.7
20260906030642 23 81 3.2 3.2 0.00 0.08 0.08 84 1015.0
20260906030137 23 132 1.6 3.2 0.00 0.08 0.08 84 1014.7
20260906025637 23 107 1.6 3.2 0.00 0.08 0.08 83 1014.8
20260906025136 23 116 0.0 1.6 0.00 0.08 0.08 83 1014.4
20260906024631 23 147 0.0 3.2 0.00 0.08 0.08 83 1014.3
20260906024130 23 160 0.0 1.6 0.00 0.08 0.08 82 1014.3
20260906023627 23 264 0.0 3.2 0.00 0.08 0.08 82 1014.3
20260906023126 23 355 0.0 3.2 0.00 0.08 0.08 82 1014.3
20260906022622 23 37 0.0 3.2 0.00 0.08 0.08 82 1014.3
20260906022117 23 74 0.0 1.6 0.00 0.08 0.08 82 1014.2
20260906021613 23 185 0.0 3.2 0.00 0.08 0.08 83 1014.3
20260906021111 23 244 0.0 3.2 0.00 0.08 0.08 83 1014.3
20260906020611 23 135 0.0 0.0 0.00 0.08 0.08 83 1014.3
20260906020106 23 269 0.0 0.0 0.00 0.08 0.08 83 1014.2
20260906015606 23 104 0.0 1.6 0.00 0.08 0.08 82 1013.9
20260906015105 23 154 0.0 1.6 0.00 0.08 0.08 81 1013.9
20260906014600 24 174 0.0 1.6 0.00 0.08 0.08 81 1014.0
20260906014056 24 142 0.0 0.0 0.00 0.08 0.08 80 1014.0
20260906013551 24 11 0.0 1.6 0.00 0.08 0.08 80 1014.1
20260906013046 24 236 0.0 3.2 0.00 0.08 0.08 80 1014.0
20260906012541 24 182 0.0 3.2 0.00 0.08 0.08 80 1013.9
20260906012041 23 193 0.0 3.2 0.00 0.08 0.08 81 1013.8
20260906011537 23 230 0.0 0.0 0.00 0.08 0.08 81 1013.8
20260906011037 23 209 0.0 0.0 0.00 0.08 0.08 81 1013.7
20260906010532 24 62 0.0 0.0 0.00 0.08 0.08 80 1014.0
20260906010028 24 164 0.0 0.0 0.00 0.08 0.08 80 1014.0
20260906005527 24 157 0.0 0.0 0.00 0.08 0.08 80 1014.0
20260906005027 24 151 0.0 1.6 0.00 0.08 0.08 79 1013.8
20260906004526 24 137 0.0 1.6 0.00 0.08 0.08 78 1013.9
20260906004021 25 151 0.0 1.6 0.00 0.08 0.08 77 1013.8
20260906003516 25 129 0.0 0.0 0.00 0.08 0.08 77 1013.9
20260906003012 25 154 0.0 1.6 0.00 0.08 0.08 76 1013.8
20260906002507 25 247 1.6 3.2 0.00 0.08 0.08 76 1013.8
20260906002002 25 63 0.0 1.6 0.00 0.08 0.08 75 1013.6
20260906001458 25 128 1.6 3.2 0.00 0.08 0.08 75 1013.6
20260906000952 25 217 0.0 3.2 0.00 0.08 0.08 74 1013.5
20260906000448 25 154 0.0 1.6 0.00 0.08 0.08 74 1013.5
20260905235948 25 314 0.0 1.6 0.00 0.08 0.08 73 1013.4
20260905235442 26 155 0.0 3.2 0.00 0.08 0.08 72 1013.5
20260905234937 26 212 0.0 4.8 0.00 0.08 0.08 71 1013.2
20260905234433 26 214 0.0 3.2 0.00 0.08 0.08 70 1013.2
20260905233932 26 218 1.6 3.2 0.00 0.08 0.08 70 1013.0
20260905233428 26 253 0.0 8.0 0.00 0.08 0.08 68 1013.3
20260905232927 27 215 1.6 4.8 0.00 0.08 0.08 67 1013.1
20260905232423 27 287 0.0 4.8 0.00 0.08 0.08 65 1013.0
20260905231918 27 259 3.2 6.4 0.00 0.08 0.08 65 1012.9
20260905231414 27 266 4.8 6.4 0.00 0.08 0.08 64 1012.9
20260905230910 28 32 0.0 3.2 0.00 0.08 0.08 65 1012.8
20260905230409 28 305 0.0 6.4 0.00 0.08 0.08 64 1012.9
20260905225907 28 28 0.0 6.4 0.00 0.08 0.08 64 1012.8
20260905225402 28 276 4.8 6.4 0.00 0.08 0.08 62 1012.8
20260905224857 28 315 3.2 3.2 0.00 0.08 0.08 61 1012.8
20260905224353 28 231 1.6 6.4 0.00 0.08 0.08 62 1012.9
20260905223848 28 284 3.2 3.2 0.00 0.08 0.08 63 1013.1
20260905223346 28 272 4.8 9.7 0.00 0.08 0.08 63 1013.0
20260905222845 28 249 0.0 4.8 0.00 0.08 0.08 64 1013.1
20260905222344 28 206 1.6 6.4 0.00 0.08 0.08 66 1013.0
20260905221841 28 252 0.0 4.8 0.00 0.08 0.08 67 1013.2
20260905221337 27 238 3.2 6.4 0.00 0.08 0.08 68 1013.1
20260905220833 27 309 3.2 3.2 0.00 0.08 0.08 70 1013.1
20260905220329 27 220 1.6 3.2 0.00 0.08 0.08 70 1013.3
20260905215828 27 260 3.2 6.4 0.00 0.08 0.08 70 1013.3
20260905215324 27 230 0.0 3.2 0.00 0.08 0.08 76 1013.7
20260905214820 26 202 0.0 3.2 0.00 0.08 0.08 77 1013.5
20260905214315 26 210 3.2 6.4 0.00 0.08 0.08 77 1013.8
20260905213810 26 142 0.0 3.2 0.00 0.08 0.08 76 1013.5
20260905213307 26 205 0.0 3.2 0.00 0.08 0.08 77 1013.5
20260905212807 26 195 0.0 3.2 0.00 0.08 0.08 76 1013.7
20260905212306 26 153 1.6 1.6 0.00 0.08 0.08 76 1013.6
20260905211801 27 182 0.0 3.2 0.00 0.08 0.08 74 1013.5
20260905211256 27 177 1.6 3.2 0.00 0.08 0.08 72 1013.8
20260905210753 27 157 1.6 3.2 0.00 0.08 0.08 72 1013.8
20260905210252 27 143 1.6 3.2 0.00 0.08 0.08 71 1013.8
20260905205751 27 190 3.2 6.4 0.00 0.08 0.08 73 1013.9
20260905205246 27 227 1.6 6.4 0.00 0.08 0.08 71 1013.7
20260905204745 26 225 1.6 4.8 0.00 0.08 0.08 76 1013.6
20260905204242 26 250 1.6 4.8 0.00 0.08 0.08 80 1013.4
20260905203741 25 148 3.2 3.2 0.00 0.08 0.08 83 1013.2
20260905203236 25 187 0.0 3.2 0.00 0.08 0.08 83 1013.1
20260905202732 25 150 1.6 3.2 0.00 0.08 0.08 84 1013.0
20260905202227 25 142 0.0 1.6 0.00 0.08 0.08 84 1013.1
20260905201722 25 136 1.6 3.2 0.00 0.08 0.08 85 1013.1
20260905201216 25 144 1.6 3.2 0.00 0.08 0.08 86 1013.4
20260905200712 25 138 3.2 3.2 0.00 0.08 0.08 86 1013.3
20260905200207 25 135 3.2 3.2 0.00 0.08 0.08 87 1013.6
20260905195705 24 59 3.2 3.2 0.00 0.08 0.08 87 1013.8
20260905195200 24 251 0.0 8.0 0.00 0.08 0.08 87 1013.9
20260905194656 24 248 0.0 4.8 0.00 0.08 0.08 87 1013.8
20260905194156 23 285 4.8 6.4 0.00 0.08 0.08 88 1013.8
20260905193655 23 322 0.0 1.6 0.00 0.08 0.08 88 1013.7
20260905193151 23 205 0.0 1.6 0.00 0.08 0.08 88 1013.7
20260905192646 23 122 0.0 3.2 0.00 0.08 0.08 87 1013.7
20260905192142 23 231 3.2 4.8 0.00 0.08 0.08 86 1013.3
20260905191642 23 175 1.6 4.8 0.00 0.08 0.08 84 1013.1
20260905191140 24 147 3.2 4.8 0.00 0.08 0.08 81 1013.4
20260905190638 24 141 3.2 3.2 0.00 0.08 0.08 80 1013.4
20260905190132 24 145 1.6 3.2 0.00 0.08 0.08 79 1013.5
20260905185631 25 106 1.6 4.8 0.00 0.08 0.08 78 1013.7
20260905185126 25 26 1.6 6.4 0.23 0.08 0.08 77 1013.6
20260905184626 26 79 1.6 4.8 0.36 0.05 0.05 73 1013.8
20260905184125 29 68 1.6 8.0 0.18 0.03 0.03 63 1014.0
20260905183624 31 31 9.7 11.3 0.00 0.00 0.00 51 1014.1
20260905183120 32 339 4.8 11.3 0.00 0.00 0.00 54 1013.2
20260905182619 32 273 3.2 6.4 0.00 0.00 0.00 53 1013.1
20260905182120 33 261 3.2 8.0 0.00 0.00 0.00 52 1013.1
20260905181620 33 322 8.0 9.7 0.00 0.00 0.00 51 1013.2
20260905181119 33 31 4.8 14.5 0.00 0.00 0.00 51 1013.4
20260905180614 33 346 3.2 8.0 0.00 0.00 0.00 51 1013.6
20260905180109 33 238 1.6 9.7 0.00 0.00 0.00 50 1013.9
20260905175608 33 325 3.2 8.0 0.00 0.00 0.00 50 1013.7
20260905175104 34 343 4.8 8.0 0.00 0.00 0.00 49 1013.7
20260905174600 34 282 8.0 12.9 0.00 0.00 0.00 49 1013.9
20260905174054 34 250 6.4 14.5 0.00 0.00 0.00 48 1013.7
20260905173551 33 327 3.2 9.7 0.00 0.00 0.00 51 1013.7
20260905173046 33 306 8.0 11.3 0.00 0.00 0.00 50 1014.0
20260905172545 34 261 3.2 6.4 0.00 0.00 0.00 50 1014.2
20260905172040 33 227 3.2 6.4 0.00 0.00 0.00 51 1014.7
20260905171537 33 279 4.8 9.7 0.00 0.00 0.00 52 1014.4
20260905171032 33 238 3.2 8.0 0.00 0.00 0.00 52 1014.8
20260905170529 33 316 3.2 12.9 0.00 0.00 0.00 53 1014.8
20260905170024 33 266 9.7 16.1 0.00 0.00 0.00 52 1014.8
20260905165519 33 311 6.4 9.7 0.00 0.00 0.00 53 1015.0
20260905165014 33 260 3.2 9.7 0.00 0.00 0.00 54 1015.1
20260905164514 33 337 6.4 8.0 0.00 0.00 0.00 53 1014.9
20260905164008 33 254 8.0 12.9 0.00 0.00 0.00 51 1015.0
20260905163504 33 281 8.0 9.7 0.00 0.00 0.00 52 1014.9
20260905163000 33 218 3.2 11.3 0.00 0.00 0.00 53 1015.0
20260905162455 33 264 1.6 3.2 0.00 0.00 0.00 53 1015.1
20260905161951 33 41 0.0 9.7 0.00 0.00 0.00 54 1015.1
20260905161449 33 247 3.2 6.4 0.00 0.00 0.00 56 1015.3
20260905160948 32 275 3.2 9.7 0.00 0.00 0.00 54 1015.4
20260905160442 33 262 4.8 9.7 0.00 0.00 0.00 56 1015.1
20260905155941 32 312 1.6 9.7 0.00 0.00 0.00 56 1015.5
20260905155436 32 231 3.2 6.4 0.00 0.00 0.00 57 1015.5
20260905154935 32 110 0.0 6.4 0.00 0.00 0.00 57 1015.5
20260905154430 32 309 3.2 6.4 0.00 0.00 0.00 58 1015.6
20260905153926 32 333 3.2 4.8 0.00 0.00 0.00 57 1015.7
20260905153422 31 172 1.6 8.0 0.00 0.00 0.00 59 1015.6
20260905152921 31 217 0.0 6.4 0.00 0.00 0.00 60 1015.7
20260905152421 31 289 1.6 6.4 0.00 0.00 0.00 62 1015.6
20260905151916 31 244 1.6 11.3 0.00 0.00 0.00 61 1015.8
20260905151412 31 283 1.6 4.8 0.00 0.00 0.00 61 1015.5
20260905150907 30 268 6.4 8.0 0.00 0.00 0.00 61 1015.7
20260905150406 30 281 3.2 8.0 0.00 0.00 0.00 61 1015.9
20260905145904 30 287 1.6 8.0 0.00 0.00 0.00 61 1015.9
20260905145404 30 290 3.2 3.2 0.00 0.00 0.00 62 1015.9
20260905144903 30 254 4.8 8.0 0.00 0.00 0.00 62 1015.9
20260905144359 30 283 4.8 4.8 0.00 0.00 0.00 65 1015.9
20260905143857 30 260 0.0 3.2 0.00 0.00 0.00 65 1015.9
20260905143352 30 221 1.6 4.8 0.00 0.00 0.00 65 1016.0
20260905142851 30 169 3.2 3.2 0.00 0.00 0.00 65 1015.9
20260905142350 29 191 1.6 4.8 0.00 0.00 0.00 66 1015.8
20260905141846 29 276 1.6 6.4 0.00 0.00 0.00 67 1015.7
20260905141341 28 241 3.2 4.8 0.00 0.00 0.00 67 1015.9
20260905140837 28 261 4.8 6.4 0.00 0.00 0.00 68 1015.8
20260905140337 28 224 0.0 1.6 0.00 0.00 0.00 71 1015.8
20260905135836 28 193 1.6 4.8 0.00 0.00 0.00 72 1015.8
20260905135332 28 199 0.0 3.2 0.00 0.00 0.00 72 1015.7
20260905134828 27 177 0.0 6.4 0.00 0.00 0.00 72 1015.6
20260905134326 27 192 3.2 4.8 0.00 0.00 0.00 74 1015.6
20260905133826 27 254 1.6 4.8 0.00 0.00 0.00 74 1015.8
20260905133322 27 216 3.2 4.8 0.00 0.00 0.00 76 1015.8
20260905132821 26 272 3.2 6.4 0.00 0.00 0.00 76 1015.8
20260905132317 26 218 0.0 6.4 0.00 0.00 0.00 77 1015.8
20260905131816 26 204 0.0 4.8 0.00 0.00 0.00 78 1015.8
20260905131312 26 249 0.0 4.8 0.00 0.00 0.00 79 1015.6
20260905130807 26 230 0.0 6.4 0.00 0.00 0.00 79 1015.8
20260905130306 25 186 0.0 3.2 0.00 0.00 0.00 81 1015.9
20260905125801 25 262 3.2 4.8 0.00 0.00 0.00 82 1015.9
20260905125256 25 199 1.6 3.2 0.00 0.00 0.00 83 1016.0
20260905124753 25 190 1.6 3.2 0.00 0.00 0.00 84 1016.0
20260905124248 25 239 0.0 3.2 0.00 0.00 0.00 84 1016.0
20260905123743 24 176 0.0 3.2 0.00 0.00 0.00 85 1016.0
20260905123240 24 245 0.0 1.6 0.00 0.00 0.00 86 1016.0
20260905122735 24 144 1.6 1.6 0.00 0.00 0.00 86 1016.0
20260905122234 23 182 1.6 3.2 0.00 0.00 0.00 87 1016.0
20260905121730 23 187 0.0 3.2 0.00 0.00 0.00 88 1016.1
20260905121226 23 108 1.6 3.2 0.00 0.00 0.00 88 1016.1
20260905120725 23 202 1.6 3.2 0.00 0.00 0.00 90 1015.9
20260905120219 22 125 0.0 3.2 0.00 0.00 0.00 91 1016.1
20260905115713 22 134 0.0 1.6 0.00 0.00 0.00 92 1015.9
20260905115208 22 221 0.0 1.6 0.00 0.00 0.00 92 1015.8
20260905114703 22 212 0.0 1.6 0.00 0.00 0.00 93 1015.7
20260905114201 22 157 0.0 0.0 0.00 0.00 0.00 93 1015.6
20260905113701 22 263 0.0 1.6 0.00 0.00 0.00 94 1015.5
20260905113156 22 140 1.6 3.2 0.00 0.00 0.00 94 1015.6
20260905112656 21 140 0.0 1.6 0.00 0.00 0.00 94 1015.4
20260905112152 21 135 0.0 1.6 0.00 0.00 0.00 94 1015.4